Previsão horária em Cerle

Hoje, 25 Julho, Domingo

Tempo Temperatura Precipitação Vento Pressão Humidade
00:00 +18°C° 0 mm 2 m/s 728 mmHg 73%
01:00 +18°C° 0 mm 2 m/s 728 mmHg 74%
02:00 +18°C° 0 mm 2 m/s 728 mmHg 74%
03:00 +18°C° 0 mm 2 m/s 728 mmHg 73%
04:00 +17°C° 0 mm 2 m/s 728 mmHg 72%
05:00 +18°C° 0 mm 2 m/s 728 mmHg 70%
06:00 +19°C° 0 mm 2 m/s 728 mmHg 68%
07:00 +20°C° 0 mm 2 m/s 728 mmHg 68%
08:00 +23°C° 0 mm 2 m/s 729 mmHg 61%
09:00 +25°C° 0 mm 3 m/s 729 mmHg 55%
10:00 +27°C° 0 mm 3 m/s 729 mmHg 48%
11:00 +28°C° 0 mm 4 m/s 729 mmHg 44%
12:00 +29°C° 0 mm 4 m/s 729 mmHg 39%
13:00 +30°C° 0 mm 4 m/s 729 mmHg 35%
14:00 +28°C° 0 mm 4 m/s 729 mmHg 43%
15:00 +26°C° 0 mm 4 m/s 729 mmHg 52%
16:00 +23°C° 0 mm 4 m/s 729 mmHg 60%
17:00 +22°C° 0 mm 3 m/s 729 mmHg 62%
18:00 +21°C° 0 mm 3 m/s 728 mmHg 63%
19:00 +21°C° 0 mm 2 m/s 728 mmHg 65%
20:00 +20°C° 0 mm 2 m/s 728 mmHg 66%
21:00 +20°C° 0 mm 3 m/s 728 mmHg 66%
22:00 +20°C° 0 mm 3 m/s 728 mmHg 67%
23:00 +20°C° 0 mm 3 m/s 728 mmHg 70%

Amanhã, 26 Julho, Segunda-feira

Tempo Temperatura Precipitação Vento Pressão Humidade
00:00 +19°C° 0 mm 3 m/s 727 mmHg 73%
01:00 +19°C° 0 mm 3 m/s 727 mmHg 76%
02:00 +19°C° 0 mm 3 m/s 727 mmHg 75%
03:00 +19°C° 0 mm 3 m/s 726 mmHg 74%
04:00 +19°C° 0 mm 3 m/s 726 mmHg 73%
05:00 +19°C° 0.1 mm 3 m/s 727 mmHg 75%
06:00 +20°C° 0.1 mm 3 m/s 727 mmHg 76%
07:00 +20°C° 0.1 mm 3 m/s 727 mmHg 77%
08:00 +23°C° 0.1 mm 2 m/s 727 mmHg 71%
09:00 +25°C° 0.1 mm 2 m/s 728 mmHg 65%
10:00 +26°C° 0.1 mm 2 m/s 728 mmHg 58%
11:00 +28°C° 0 mm 2 m/s 728 mmHg 55%
12:00 +29°C° 0 mm 3 m/s 728 mmHg 51%
13:00 +30°C° 0 mm 3 m/s 727 mmHg 48%
14:00 +29°C° 0.3 mm 3 m/s 727 mmHg 53%
15:00 +28°C° 0.3 mm 3 m/s 727 mmHg 59%
16:00 +27°C° 0.3 mm 3 m/s 727 mmHg 64%
17:00 +25°C° 0.8 mm 2 m/s 727 mmHg 73%
18:00 +23°C° 0.8 mm 2 m/s 727 mmHg 82%
19:00 +22°C° 0.8 mm 1 m/s 727 mmHg 91%
20:00 +21°C° 0 mm 1 m/s 727 mmHg 92%
21:00 +20°C° 0 mm 1 m/s 727 mmHg 93%
22:00 +20°C° 0 mm 1 m/s 727 mmHg 93%
23:00 +20°C° 0 mm 1 m/s 727 mmHg 93%

Depois de amanhã, 27 Julho, Terça-feira

Tempo Temperatura Precipitação Vento Pressão Humidade
00:00 +20°C° 0 mm 1 m/s 727 mmHg 93%
01:00 +18°C° 0 mm 2 m/s 727 mmHg 93%
02:00 +18°C° 0.2 mm 2 m/s 727 mmHg 93%
03:00 +18°C° 0.2 mm 2 m/s 727 mmHg 94%
04:00 +18°C° 0.2 mm 2 m/s 727 mmHg 94%
05:00 +20°C° 0.3 mm 1 m/s 727 mmHg 93%
06:00 +20°C° 0.3 mm 1 m/s 727 mmHg 92%
07:00 +21°C° 0.3 mm 1 m/s 727 mmHg 91%
08:00 +21°C° 0.1 mm 2 m/s 728 mmHg 87%
09:00 +23°C° 0.1 mm 2 m/s 728 mmHg 83%
10:00 +24°C° 0.1 mm 2 m/s 728 mmHg 78%
11:00 +25°C° 0.2 mm 2 m/s 728 mmHg 70%
12:00 +27°C° 0.2 mm 3 m/s 729 mmHg 61%
13:00 +28°C° 0.2 mm 3 m/s 729 mmHg 52%
14:00 +28°C° 0 mm 3 m/s 729 mmHg 52%
15:00 +28°C° 0 mm 3 m/s 729 mmHg 52%
16:00 +28°C° 0 mm 3 m/s 728 mmHg 51%
17:00 +27°C° 0.1 mm 2 m/s 728 mmHg 58%
18:00 +25°C° 0.1 mm 2 m/s 728 mmHg 66%
19:00 +24°C° 0.1 mm 2 m/s 728 mmHg 73%
20:00 +23°C° 0 mm 1 m/s 728 mmHg 74%
21:00 +22°C° 0 mm 1 m/s 729 mmHg 76%
22:00 +21°C° 0 mm 1 m/s 729 mmHg 78%
23:00 +21°C° 0 mm 1 m/s 729 mmHg 79%

28 Julho, Quarta-feira

Tempo Temperatura Precipitação Vento Pressão Humidade
00:00 +20°C° 0 mm 1 m/s 729 mmHg 81%
01:00 +20°C° 0 mm 1 m/s 729 mmHg 82%
02:00 +20°C° 0 mm 1 m/s 729 mmHg 83%
03:00 +20°C° 0 mm 1 m/s 729 mmHg 84%
04:00 +18°C° 0 mm 2 m/s 729 mmHg 85%
05:00 +20°C° 0 mm 2 m/s 729 mmHg 79%
06:00 +23°C° 0 mm 2 m/s 729 mmHg 73%
07:00 +25°C° 0 mm 2 m/s 729 mmHg 67%
08:00 +26°C° 0 mm 2 m/s 729 mmHg 61%
09:00 +27°C° 0 mm 2 m/s 729 mmHg 55%
10:00 +29°C° 0 mm 2 m/s 729 mmHg 49%
11:00 +30°C° 0 mm 2 m/s 729 mmHg 46%
12:00 +30°C° 0 mm 1 m/s 729 mmHg 42%
13:00 +31°C° 0 mm 1 m/s 728 mmHg 39%
14:00 +31°C° 0 mm 1 m/s 728 mmHg 39%
15:00 +31°C° 0 mm 1 m/s 728 mmHg 40%
16:00 +31°C° 0 mm 2 m/s 728 mmHg 40%
17:00 +28°C° 0.6 mm 2 m/s 728 mmHg 55%
18:00 +25°C° 0.6 mm 2 m/s 728 mmHg 70%
19:00 +21°C° 0.6 mm 2 m/s 727 mmHg 84%
20:00 +20°C° 0.2 mm 2 m/s 728 mmHg 85%
21:00 +20°C° 0.2 mm 2 m/s 728 mmHg 86%
22:00 +20°C° 0.2 mm 2 m/s 728 mmHg 87%
23:00 +19°C° 0.4 mm 2 m/s 728 mmHg 89%

29 Julho, Quinta-feira

Tempo Temperatura Precipitação Vento Pressão Humidade
00:00 +18°C° 0.4 mm 3 m/s 728 mmHg 91%
01:00 +18°C° 0.4 mm 3 m/s 728 mmHg 93%
02:00 +18°C° 0.4 mm 3 m/s 729 mmHg 94%
03:00 +17°C° 0.4 mm 3 m/s 729 mmHg 94%
04:00 +17°C° 0.4 mm 3 m/s 729 mmHg 95%
05:00 +18°C° 0.1 mm 3 m/s 729 mmHg 94%
06:00 +18°C° 0.1 mm 3 m/s 729 mmHg 94%
07:00 +18°C° 0.1 mm 3 m/s 729 mmHg 93%
08:00 +19°C° 0 mm 2 m/s 730 mmHg 87%
09:00 +20°C° 0 mm 2 m/s 730 mmHg 81%
10:00 +20°C° 0 mm 2 m/s 730 mmHg 75%
11:00 +23°C° 0 mm 2 m/s 730 mmHg 66%
12:00 +25°C° 0 mm 2 m/s 730 mmHg 57%
13:00 +27°C° 0 mm 2 m/s 730 mmHg 49%
14:00 +27°C° 0 mm 2 m/s 730 mmHg 48%
15:00 +27°C° 0 mm 2 m/s 729 mmHg 48%
16:00 +27°C° 0 mm 2 m/s 729 mmHg 47%
17:00 +26°C° 0 mm 2 m/s 729 mmHg 53%
18:00 +25°C° 0 mm 1 m/s 729 mmHg 59%
19:00 +23°C° 0 mm 1 m/s 728 mmHg 65%
20:00 +22°C° 0 mm 1 m/s 728 mmHg 68%
21:00 +21°C° 0 mm 1 m/s 728 mmHg 72%
22:00 +20°C° 0 mm 1 m/s 728 mmHg 76%
23:00 +20°C° 0 mm 1 m/s 728 mmHg 77%

30 Julho, Sexta-feira

Tempo Temperatura Precipitação Vento Pressão Humidade
00:00 +19°C° 0 mm 1 m/s 728 mmHg 79%
01:00 +19°C° 0 mm 1 m/s 728 mmHg 80%
02:00 +18°C° 0 mm 2 m/s 728 mmHg 82%
03:00 +17°C° 0 mm 2 m/s 728 mmHg 83%
04:00 +17°C° 0 mm 2 m/s 727 mmHg 84%
05:00 +19°C° 0 mm 2 m/s 727 mmHg 78%
06:00 +21°C° 0 mm 3 m/s 728 mmHg 73%
07:00 +24°C° 0 mm 3 m/s 728 mmHg 67%
08:00 +25°C° 0 mm 3 m/s 727 mmHg 60%
09:00 +27°C° 0 mm 4 m/s 727 mmHg 53%
10:00 +29°C° 0 mm 4 m/s 727 mmHg 47%
11:00 +30°C° 0 mm 4 m/s 727 mmHg 44%
12:00 +32°C° 0 mm 4 m/s 726 mmHg 42%
13:00 +33°C° 0 mm 4 m/s 726 mmHg 39%
14:00 +33°C° 0 mm 4 m/s 726 mmHg 39%
15:00 +33°C° 0 mm 4 m/s 725 mmHg 39%
16:00 +33°C° 0 mm 4 m/s 725 mmHg 39%
17:00 +30°C° 0 mm 3 m/s 725 mmHg 47%
18:00 +28°C° 0 mm 3 m/s 725 mmHg 55%
19:00 +26°C° 0 mm 3 m/s 724 mmHg 63%
20:00 +24°C° 1.9 mm 3 m/s 724 mmHg 74%
21:00 +21°C° 1.9 mm 2 m/s 725 mmHg 85%
22:00 +20°C° 1.9 mm 1 m/s 725 mmHg 96%
23:00 +19°C° 1.4 mm 2 m/s 725 mmHg 96%
Mostrar mais

Necessitamos do seu Consentimento

A Meteoprog e os seus Fornecedores de Serviços podem armazenar e aceder a dados pessoais como cookies, identificadores do dispositivo ou outras tecnologias semelhantes existentes no seu dispositivo e processar estes dados para personalizar conteúdos e anúncios, assim como funcionalidades nas redes sociais e análise de tráfego.

  • Armazenar e/ou aceder a informações no seu dispositivo

    Os cookies, identificadores do dispositivo ou outras informações podem ser armazenados ou acedidos no seu dispositivo, para os fins acima indicados.

  • Anúncios e conteúdos personalizados, medição de anúncios e conteúdos, dados sobre o público-alvo e desenvolvimento de produtos

    Os anúncios e os conteúdos podem ser personalizados com base num perfil. Podem ser adicionados dados adicionais para uma maior personalização dos anúncios e dos conteúdos. A eficácia dos anúncios e dos conteúdos pode ser medida. Podem ser obtidas informações sobre o público que visualizou os anúncios e os conteúdos. Estes dados podem ser usados para desenvolver ou melhorar sistemas, softwares ou a experiência do utilizador.

Ao clicar em "Eu concordo”, permitirá o uso de cookies, identificadores do dispositivo e web beacons mencionados ou outras tecnologias semelhantes. As configurações do navegador do seu dispositivo podem ser alteradas.

Para certos fins, podem ser invocados interesses legítimos ao invés de consentimento. Pode ler mais informação sobre este assunto na nossa Política de Privacidade e Cookies.